QPF
0.00 0.01 0.01 0.00 0.01 0.02 0.01 0.01 0.01 0.01 0.01 0.02 0.02 0.03 0.05 0.02 0.05 0.06 0.04 0.05 0.06 0.08 0.10 0.06 0.06 0.09 0.19 0.19 0.12 0.10 0.09 0.08 0.07 0.06 0.06 0.06 0.08 0.08 0.06 0.05 0.05 0.06 0.09 0.08
0.00 0.01 0.00 0.00 0.00 0.00 0.00 0.01 0.01 0.02 0.03 0.04 0.04 0.03 0.06 0.03 0.04 0.06 0.07 0.08 0.08 0.08 0.06 0.05 0.06 0.07 0.09 0.10 0.09 0.08 0.06 0.06 0.05 0.04 0.05 0.05 0.07 0.07 0.07 0.08 0.08 0.07 0.06 0.07
0.00 0.00 0.00 0.00 0.00 0.00 0.00 0.01 0.02 0.03 0.03 0.05 0.07 0.06 0.05 0.04 0.04 0.06 0.08 0.07 0.06 0.06 0.05 0.05 0.07 0.07 0.08 0.06 0.06 0.07 0.05 0.05 0.05 0.05 0.05 0.05 0.05 0.05 0.07 0.07 0.07 0.07 0.07 0.07
0.00 0.00 0.00 0.00 0.00 0.00 0.00 0.01 0.02 0.03 0.03 0.04 0.06 0.11 0.07 0.08 0.08 0.06 0.07 0.05 0.03 0.05 0.05 0.08 0.07 0.07 0.07 0.06 0.05 0.07 0.06 0.05 0.05 0.05 0.05 0.05 0.05 0.05 0.06 0.06 0.06 0.07 0.08 0.07
0.00 0.00 0.00 0.00 0.00 0.00 0.00 0.01 0.02 0.03 0.03 0.03 0.05 0.07 0.09 0.07 0.10 0.06 0.05 0.04 0.03 0.03 0.04 0.06 0.07 0.06 0.06 0.07 0.06 0.07 0.07 0.05 0.07 0.07 0.07 0.07 0.07 0.06 0.07 0.07 0.07 0.06 0.06 0.07
0.00 0.00 0.00 0.00 0.00 0.00 0.01 0.01 0.02 0.03 0.04 0.04 0.03 0.05 0.12 0.08 0.10 0.08 0.05 0.05 0.03 0.02 0.04 0.06 0.09 0.06 0.07 0.06 0.06 0.07 0.08 0.07 0.07 0.07 0.07 0.07 0.07 0.07 0.07 0.07 0.06 0.05 0.05 0.05
0.01 0.00 0.00 0.00 0.01 0.01 0.02 0.05 0.06 0.07 0.06 0.06 0.04 0.05 0.11 0.10 0.07 0.07 0.05 0.05 0.04 0.03 0.04 0.05 0.08 0.05 0.04 0.04 0.04 0.04 0.06 0.06 0.07 0.06 0.06 0.06 0.07 0.08 0.08 0.08 0.08 0.07 0.06 0.05
0.02 0.01 0.00 0.00 0.01 0.01 0.02 0.04 0.07 0.08 0.08 0.06 0.04 0.06 0.09 0.11 0.07 0.07 0.06 0.05 0.03 0.03 0.03 0.05 0.05 0.05 0.04 0.03 0.03 0.03 0.04 0.05 0.06 0.05 0.05 0.05 0.07 0.08 0.08 0.08 0.08 0.09 0.08 0.07
0.02 0.01 0.00 0.00 0.00 0.00 0.01 0.02 0.02 0.05 0.06 0.06 0.06 0.08 0.09 0.06 0.04 0.06 0.07 0.05 0.03 0.02 0.02 0.04 0.04 0.04 0.04 0.03 0.04 0.05 0.06 0.06 0.06 0.05 0.04 0.05 0.07 0.07 0.07 0.08 0.08 0.08 0.07 0.07
0.02 0.02 0.00 0.00 0.00 0.00 0.01 0.01 0.01 0.04 0.07 0.08 0.07 0.08 0.11 0.07 0.06 0.06 0.07 0.04 0.03 0.02 0.01 0.02 0.04 0.04 0.04 0.04 0.05 0.06 0.06 0.06 0.06 0.05 0.05 0.05 0.08 0.07 0.06 0.07 0.06 0.06 0.05 0.05
0.02 0.03 0.02 0.01 0.01 0.01 0.01 0.02 0.02 0.03 0.03 0.07 0.09 0.09 0.08 0.08 0.07 0.06 0.07 0.04 0.03 0.01 0.01 0.02 0.03 0.05 0.05 0.05 0.05 0.06 0.06 0.05 0.05 0.05 0.06 0.07 0.09 0.09 0.10 0.09 0.06 0.06 0.05 0.04
0.02 0.03 0.03 0.02 0.01 0.00 0.01 0.02 0.03 0.05 0.05 0.05 0.08 0.07 0.06 0.07 0.07 0.08 0.06 0.04 0.03 0.02 0.02 0.06 0.06 0.05 0.04 0.04 0.04 0.04 0.05 0.04 0.04 0.05 0.08 0.09 0.11 0.13 0.14 0.10 0.08 0.06 0.04 0.05
0.02 0.04 0.05 0.04 0.03 0.01 0.01 0.02 0.02 0.02 0.04 0.06 0.08 0.08 0.06 0.06 0.05 0.04 0.03 0.03 0.04 0.03 0.03 0.07 0.08 0.04 0.04 0.04 0.02 0.03 0.05 0.05 0.03 0.04 0.08 0.11 0.12 0.12 0.12 0.09 0.08 0.06 0.05 0.06
0.02 0.05 0.05 0.04 0.02 0.01 0.01 0.01 0.00 0.01 0.03 0.05 0.07 0.07 0.05 0.04 0.03 0.03 0.04 0.04 0.05 0.05 0.04 0.05 0.07 0.07 0.06 0.05 0.03 0.02 0.02 0.03 0.04 0.06 0.09 0.12 0.11 0.09 0.09 0.08 0.09 0.07 0.06 0.06
0.02 0.05 0.03 0.01 0.01 0.01 0.01 0.01 0.01 0.02 0.03 0.09 0.11 0.11 0.07 0.04 0.04 0.04 0.05 0.05 0.04 0.04 0.02 0.02 0.04 0.07 0.07 0.06 0.04 0.03 0.02 0.04 0.06 0.07 0.08 0.09 0.10 0.09 0.07 0.08 0.08 0.06 0.05 0.04
0.03 0.04 0.02 0.01 0.01 0.01 0.02 0.02 0.02 0.03 0.04 0.07 0.08 0.07 0.04 0.04 0.03 0.03 0.03 0.03 0.02 0.02 0.02 0.02 0.03 0.06 0.07 0.06 0.04 0.04 0.04 0.03 0.04 0.06 0.07 0.07 0.08 0.06 0.06 0.07 0.06 0.05 0.04 0.05
0.03 0.03 0.03 0.03 0.02 0.03 0.06 0.07 0.05 0.03 0.03 0.04 0.04 0.03 0.03 0.03 0.03 0.03 0.03 0.03 0.02 0.03 0.02 0.03 0.04 0.05 0.05 0.05 0.06 0.05 0.05 0.04 0.05 0.06 0.05 0.06 0.06 0.06 0.06 0.04 0.04 0.04 0.04 0.04
0.04 0.04 0.03 0.03 0.04 0.05 0.08 0.09 0.07 0.05 0.05 0.06 0.05 0.03 0.02 0.02 0.03 0.03 0.03 0.02 0.03 0.03 0.03 0.04 0.05 0.05 0.05 0.05 0.06 0.05 0.04 0.04 0.04 0.04 0.03 0.04 0.06 0.05 0.04 0.04 0.03 0.04 0.05 0.05
0.02 0.02 0.02 0.03 0.04 0.05 0.06 0.06 0.06 0.08 0.10 0.10 0.07 0.04 0.02 0.02 0.03 0.04 0.03 0.02 0.02 0.03 0.04 0.05 0.05 0.05 0.05 0.04 0.04 0.04 0.03 0.04 0.04 0.03 0.02 0.03 0.04 0.04 0.03 0.04 0.06 0.05 0.05 0.06
0.01 0.01 0.01 0.03 0.03 0.04 0.06 0.03 0.03 0.06 0.12 0.10 0.06 0.04 0.04 0.03 0.04 0.05 0.05 0.03 0.02 0.03 0.05 0.06 0.05 0.04 0.04 0.04 0.04 0.04 0.03 0.04 0.05 0.04 0.03 0.03 0.03 0.04 0.06 0.06 0.06 0.06 0.05 0.05
0.03 0.02 0.03 0.03 0.03 0.04 0.04 0.03 0.02 0.07 0.10 0.07 0.05 0.03 0.04 0.05 0.05 0.06 0.06 0.05 0.04 0.03 0.04 0.06 0.05 0.04 0.05 0.04 0.04 0.05 0.04 0.05 0.05 0.04 0.04 0.04 0.05 0.06 0.07 0.05 0.05 0.05 0.04 0.05
0.02 0.03 0.04 0.04 0.04 0.04 0.02 0.02 0.04 0.07 0.07 0.07 0.07 0.05 0.04 0.03 0.03 0.03 0.05 0.05 0.05 0.03 0.03 0.04 0.05 0.04 0.05 0.04 0.03 0.04 0.05 0.04 0.03 0.03 0.03 0.04 0.05 0.05 0.03 0.04 0.04 0.04 0.04 0.04
0.01 0.01 0.02 0.03 0.04 0.04 0.03 0.03 0.03 0.04 0.05 0.05 0.06 0.05 0.03 0.03 0.02 0.02 0.04 0.06 0.04 0.04 0.04 0.04 0.05 0.05 0.05 0.05 0.04 0.04 0.07 0.06 0.04 0.04 0.04 0.05 0.04 0.04 0.04 0.04 0.05 0.05 0.05 0.05
0.01 0.02 0.02 0.02 0.02 0.02 0.02 0.01 0.01 0.01 0.02 0.02 0.03 0.04 0.05 0.04 0.02 0.03 0.05 0.06 0.05 0.04 0.03 0.03 0.04 0.04 0.03 0.03 0.04 0.05 0.06 0.07 0.07 0.07 0.07 0.07 0.06 0.04 0.04 0.04 0.04 0.04 0.03 0.03
0.02 0.02 0.02 0.02 0.02 0.01 0.01 0.01 0.01 0.00 0.00 0.01 0.01 0.04 0.05 0.04 0.03 0.03 0.05 0.05 0.04 0.03 0.02 0.03 0.04 0.04 0.02 0.02 0.02 0.03 0.05 0.05 0.05 0.06 0.06 0.05 0.05 0.05 0.04 0.03 0.03 0.02 0.02 0.01
0.02 0.02 0.02 0.02 0.01 0.01 0.01 0.01 0.01 0.01 0.01 0.01 0.01 0.03 0.03 0.03 0.04 0.03 0.04 0.05 0.04 0.03 0.03 0.03 0.04 0.03 0.02 0.02 0.02 0.03 0.02 0.03 0.03 0.02 0.02 0.02 0.02 0.03 0.03 0.02 0.01 0.01 0.01 0.00
MSLP
1007.47 1007.92 1008.19 1008.30 1008.28 1008.23 1008.25 1008.45 1008.87 1009.53 1010.39 1011.35 1012.31 1013.15 1013.78 1014.15 1014.28 1014.21 1014.02 1013.80 1013.62 1013.51 1013.50 1013.54 1013.58 1013.57 1013.43 1013.16 1012.75 1012.22 1011.65 1011.10 1010.61 1010.25 1010.00 1009.88 1009.85 1009.86 1009.88 1009.89 1009.86 1009.80 1009.74 1009.69
1008.30 1008.70 1008.91 1008.94 1008.85 1008.73 1008.71 1008.89 1009.32 1010.01 1010.92 1011.94 1012.97 1013.89 1014.60 1015.04 1015.22 1015.19 1015.01 1014.77 1014.54 1014.37 1014.26 1014.20 1014.15 1014.04 1013.85 1013.55 1013.15 1012.67 1012.17 1011.70 1011.31 1011.02 1010.84 1010.74 1010.70 1010.68 1010.65 1010.59 1010.50 1010.38 1010.28 1010.20
1009.17 1009.49 1009.62 1009.56 1009.38 1009.21 1009.14 1009.29 1009.72 1010.44 1011.39 1012.48 1013.59 1014.60 1015.40 1015.93 1016.19 1016.21 1016.06 1015.82 1015.54 1015.29 1015.08 1014.90 1014.72 1014.50 1014.22 1013.87 1013.45 1013.00 1012.56 1012.16 1011.85 1011.63 1011.50 1011.44 1011.41 1011.37 1011.30 1011.20 1011.07 1010.92 1010.79 1010.70
1009.99 1010.23 1010.26 1010.11 1009.86 1009.62 1009.51 1009.64 1010.08 1010.81 1011.81 1012.95 1014.13 1015.22 1016.11 1016.73 1017.06 1017.14 1017.02 1016.77 1016.46 1016.14 1015.83 1015.54 1015.24 1014.92 1014.55 1014.14 1013.70 1013.26 1012.85 1012.50 1012.25 1012.09 1012.00 1011.96 1011.93 1011.89 1011.81 1011.69 1011.54 1011.38 1011.24 1011.14
1010.72 1010.86 1010.79 1010.56 1010.24 1009.96 1009.83 1009.95 1010.40 1011.16 1012.19 1013.38 1014.60 1015.74 1016.68 1017.35 1017.74 1017.85 1017.75 1017.51 1017.17 1016.80 1016.43 1016.05 1015.67 1015.27 1014.85 1014.39 1013.93 1013.49 1013.10 1012.79 1012.56 1012.43 1012.36 1012.33 1012.31 1012.27 1012.18 1012.05 1011.90 1011.74 1011.60 1011.50
1011.35 1011.39 1011.23 1010.93 1010.56 1010.26 1010.12 1010.26 1010.73 1011.52 1012.56 1013.76 1015.00 1016.15 1017.10 1017.78 1018.18 1018.30 1018.21 1017.96 1017.61 1017.22 1016.82 1016.41 1016.00 1015.57 1015.12 1014.66 1014.19 1013.75 1013.37 1013.06 1012.84 1012.71 1012.63 1012.60 1012.57 1012.52 1012.43 1012.30 1012.15 1012.00 1011.86 1011.76
1011.90 1011.84 1011.61 1011.25 1010.87 1010.56 1010.44 1010.61 1011.10 1011.91 1012.96 1014.15 1015.37 1016.48 1017.40 1018.04 1018.40 1018.50 1018.39 1018.12 1017.78 1017.39 1017.00 1016.61 1016.21 1015.81 1015.38 1014.94 1014.49 1014.06 1013.68 1013.36 1013.12 1012.96 1012.86 1012.79 1012.74 1012.68 1012.58 1012.46 1012.32 1012.17 1012.03 1011.92
1012.43 1012.29 1012.00 1011.61 1011.21 1010.92 1010.83 1011.03 1011.55 1012.37 1013.42 1014.58 1015.75 1016.79 1017.63 1018.19 1018.48 1018.52 1018.36 1018.08 1017.73 1017.37 1017.02 1016.68 1016.35 1016.01 1015.64 1015.25 1014.83 1014.42 1014.03 1013.69 1013.41 1013.21 1013.06 1012.95 1012.87 1012.78 1012.68 1012.55 1012.41 1012.27 1012.13 1012.01
1012.98 1012.78 1012.45 1012.04 1011.65 1011.38 1011.33 1011.57 1012.12 1012.94 1013.96 1015.08 1016.16 1017.11 1017.84 1018.30 1018.49 1018.44 1018.24 1017.93 1017.58 1017.25 1016.96 1016.69 1016.44 1016.19 1015.90 1015.57 1015.19 1014.80 1014.40 1014.03 1013.71 1013.45 1013.24 1013.09 1012.96 1012.85 1012.73 1012.61 1012.47 1012.32 1012.18 1012.05
1013.57 1013.35 1013.01 1012.60 1012.23 1011.99 1011.97 1012.24 1012.80 1013.61 1014.59 1015.64 1016.64 1017.47 1018.08 1018.42 1018.50 1018.37 1018.10 1017.77 1017.43 1017.13 1016.89 1016.70 1016.54 1016.37 1016.15 1015.88 1015.55 1015.17 1014.76 1014.35 1013.98 1013.67 1013.41 1013.21 1013.05 1012.91 1012.79 1012.66 1012.52 1012.37 1012.22 1012.08
1014.21 1014.01 1013.67 1013.29 1012.94 1012.73 1012.74 1013.02 1013.57 1014.36 1015.29 1016.25 1017.15 1017.87 1018.36 1018.58 1018.57 1018.36 1018.04 1017.68 1017.34 1017.07 1016.88 1016.75 1016.66 1016.55 1016.40 1016.17 1015.87 1015.49 1015.06 1014.63 1014.22 1013.86 1013.56 1013.32 1013.14 1013.00 1012.88 1012.75 1012.62 1012.47 1012.31 1012.14
1014.87 1014.71 1014.42 1014.07 1013.76 1013.58 1013.60 1013.87 1014.40 1015.13 1015.98 1016.86 1017.65 1018.26 1018.65 1018.77 1018.68 1018.41 1018.06 1017.68 1017.35 1017.10 1016.94 1016.86 1016.81 1016.75 1016.63 1016.42 1016.12 1015.74 1015.30 1014.84 1014.40 1014.01 1013.70 1013.45 1013.27 1013.14 1013.02 1012.91 1012.78 1012.63 1012.46 1012.27
1015.50 1015.40 1015.18 1014.89 1014.62 1014.46 1014.48 1014.73 1015.21 1015.87 1016.63 1017.40 1018.08 1018.59 1018.89 1018.94 1018.79 1018.50 1018.13 1017.76 1017.44 1017.21 1017.08 1017.02 1016.98 1016.93 1016.81 1016.61 1016.30 1015.91 1015.45 1014.98 1014.54 1014.15 1013.84 1013.60 1013.44 1013.33 1013.24 1013.14 1013.03 1012.87 1012.69 1012.48
1016.03 1016.02 1015.87 1015.65 1015.43 1015.30 1015.32 1015.53 1015.95 1016.51 1017.17 1017.82 1018.39 1018.81 1019.03 1019.03 1018.86 1018.56 1018.21 1017.86 1017.57 1017.37 1017.25 1017.19 1017.15 1017.09 1016.95 1016.73 1016.41 1016.00 1015.54 1015.07 1014.64 1014.27 1013.99 1013.79 1013.67 1013.59 1013.53 1013.45 1013.34 1013.18 1012.98 1012.74
1016.41 1016.49 1016.43 1016.28 1016.12 1016.02 1016.03 1016.21 1016.55 1017.01 1017.55 1018.09 1018.55 1018.87 1019.03 1019.00 1018.83 1018.56 1018.24 1017.94 1017.69 1017.51 1017.40 1017.34 1017.29 1017.20 1017.04 1016.79 1016.45 1016.03 1015.58 1015.13 1014.72 1014.39 1014.15 1014.00 1013.92 1013.88 1013.85 1013.79 1013.68 1013.51 1013.28 1013.01
1016.60 1016.76 1016.78 1016.71 1016.62 1016.55 1016.58 1016.72 1016.98 1017.35 1017.77 1018.18 1018.54 1018.78 1018.88 1018.84 1018.69 1018.46 1018.20 1017.95 1017.75 1017.61 1017.52 1017.45 1017.38 1017.26 1017.07 1016.80 1016.44 1016.02 1015.59 1015.17 1014.80 1014.52 1014.33 1014.23 1014.19 1014.18 1014.16 1014.11 1013.99 1013.80 1013.54 1013.23
1016.59 1016.80 1016.90 1016.91 1016.89 1016.87 1016.91 1017.03 1017.24 1017.52 1017.83 1018.13 1018.39 1018.56 1018.62 1018.58 1018.45 1018.27 1018.07 1017.89 1017.75 1017.65 1017.57 1017.51 1017.42 1017.28 1017.06 1016.77 1016.40 1016.00 1015.58 1015.20 1014.88 1014.65 1014.50 1014.43 1014.42 1014.42 1014.41 1014.34 1014.20 1013.98 1013.69 1013.34
1016.38 1016.62 1016.77 1016.86 1016.91 1016.95 1017.03 1017.15 1017.32 1017.53 1017.76 1017.97 1018.15 1018.25 1018.28 1018.24 1018.15 1018.02 1017.89 1017.78 1017.69 1017.63 1017.58 1017.52 1017.42 1017.26 1017.02 1016.72 1016.36 1015.97 1015.59 1015.24 1014.96 1014.76 1014.65 1014.60 1014.59 1014.58 1014.55 1014.45 1014.28 1014.03 1013.70 1013.32
1016.01 1016.25 1016.44 1016.59 1016.71 1016.83 1016.95 1017.09 1017.25 1017.43 1017.60 1017.75 1017.86 1017.92 1017.93 1017.90 1017.84 1017.77 1017.70 1017.65 1017.61 1017.59 1017.56 1017.50 1017.39 1017.22 1016.98 1016.67 1016.32 1015.96 1015.60 1015.29 1015.04 1014.86 1014.76 1014.70 1014.67 1014.63 1014.56 1014.42 1014.20 1013.92 1013.56 1013.17
1015.54 1015.76 1015.97 1016.16 1016.35 1016.54 1016.72 1016.90 1017.07 1017.23 1017.38 1017.49 1017.56 1017.60 1017.61 1017.59 1017.56 1017.53 1017.52 1017.52 1017.53 1017.54 1017.52 1017.47 1017.36 1017.18 1016.94 1016.64 1016.30 1015.96 1015.63 1015.35 1015.12 1014.95 1014.83 1014.75 1014.68 1014.59 1014.46 1014.27 1014.01 1013.69 1013.33 1012.94
1015.05 1015.23 1015.43 1015.65 1015.89 1016.14 1016.38 1016.60 1016.81 1016.98 1017.11 1017.21 1017.27 1017.30 1017.31 1017.32 1017.32 1017.34 1017.37 1017.41 1017.45 1017.48 1017.48 1017.43 1017.32 1017.14 1016.90 1016.61 1016.30 1015.98 1015.68 1015.42 1015.20 1015.03 1014.89 1014.77 1014.64 1014.49 1014.29 1014.04 1013.75 1013.41 1013.05 1012.69
1014.59 1014.71 1014.89 1015.13 1015.40 1015.69 1015.98 1016.25 1016.48 1016.67 1016.82 1016.92 1016.98 1017.02 1017.05 1017.07 1017.11 1017.16 1017.23 1017.30 1017.37 1017.42 1017.42 1017.37 1017.26 1017.09 1016.86 1016.59 1016.30 1016.01 1015.74 1015.50 1015.28 1015.10 1014.93 1014.77 1014.58 1014.37 1014.11 1013.81 1013.49 1013.14 1012.79 1012.47
1014.18 1014.25 1014.41 1014.64 1014.93 1015.24 1015.56 1015.86 1016.12 1016.33 1016.49 1016.60 1016.68 1016.73 1016.78 1016.83 1016.90 1016.98 1017.07 1017.17 1017.26 1017.31 1017.32 1017.28 1017.17 1017.01 1016.80 1016.56 1016.30 1016.04 1015.80 1015.57 1015.37 1015.18 1014.98 1014.77 1014.54 1014.27 1013.96 1013.62 1013.27 1012.93 1012.61 1012.33
1013.84 1013.86 1013.99 1014.21 1014.49 1014.82 1015.15 1015.46 1015.73 1015.96 1016.13 1016.25 1016.34 1016.41 1016.48 1016.55 1016.64 1016.75 1016.87 1016.98 1017.08 1017.14 1017.16 1017.12 1017.02 1016.88 1016.69 1016.48 1016.26 1016.04 1015.83 1015.63 1015.44 1015.24 1015.03 1014.79 1014.51 1014.20 1013.86 1013.50 1013.13 1012.80 1012.50 1012.26
1013.52 1013.52 1013.62 1013.83 1014.10 1014.42 1014.75 1015.06 1015.34 1015.57 1015.74 1015.87 1015.97 1016.06 1016.14 1016.23 1016.34 1016.46 1016.59 1016.71 1016.82 1016.88 1016.90 1016.87 1016.79 1016.67 1016.51 1016.34 1016.15 1015.97 1015.80 1015.63 1015.46 1015.26 1015.05 1014.79 1014.49 1014.15 1013.79 1013.41 1013.05 1012.72 1012.45 1012.24
1013.16 1013.15 1013.25 1013.45 1013.72 1014.03 1014.36 1014.67 1014.94 1015.17 1015.34 1015.48 1015.58 1015.68 1015.77 1015.87 1015.99 1016.11 1016.25 1016.37 1016.47 1016.54 1016.57 1016.54 1016.48 1016.37 1016.25 1016.11 1015.97 1015.83 1015.69 1015.55 1015.39 1015.21 1015.00 1014.73 1014.43 1014.08 1013.71 1013.33 1012.97 1012.65 1012.39 1012.20
Thickness
5782 5770 5761 5769 5775 5773 5773 5768 5764 5771 5783 5774 5761 5757 5759 5762 5763 5756 5754 5751 5746 5743 5743 5743 5743 5743 5740 5737 5734 5732 5729 5727 5726 5723 5720 5718 5717 5717 5717 5717 5717 5716 5714 5712
5771 5764 5776 5784 5781 5775 5771 5762 5763 5769 5775 5769 5757 5754 5758 5755 5755 5753 5750 5745 5741 5738 5736 5736 5736 5735 5733 5730 5728 5727 5724 5723 5721 5719 5717 5715 5713 5712 5712 5712 5711 5711 5709 5708
5764 5773 5784 5778 5772 5766 5763 5760 5759 5756 5764 5768 5755 5743 5744 5747 5752 5749 5746 5743 5739 5732 5728 5728 5728 5728 5727 5725 5723 5723 5720 5718 5717 5716 5714 5711 5709 5707 5706 5705 5704 5705 5705 5703
5769 5778 5776 5769 5765 5763 5752 5766 5763 5758 5751 5746 5748 5723 5730 5735 5734 5735 5734 5736 5733 5730 5727 5724 5722 5721 5721 5721 5721 5719 5716 5714 5713 5712 5709 5705 5702 5699 5700 5700 5699 5700 5700 5699
5761 5769 5764 5757 5760 5761 5756 5767 5762 5758 5749 5742 5743 5727 5721 5730 5721 5722 5727 5730 5730 5728 5725 5721 5718 5718 5718 5718 5716 5714 5712 5710 5708 5706 5704 5701 5698 5697 5697 5697 5695 5695 5695 5695
5765 5773 5767 5759 5765 5765 5762 5759 5757 5755 5746 5724 5734 5725 5709 5722 5718 5718 5721 5724 5725 5725 5722 5719 5717 5716 5714 5713 5712 5710 5707 5704 5702 5700 5698 5696 5694 5693 5692 5691 5690 5690 5690 5690
5748 5758 5766 5766 5752 5755 5752 5736 5719 5717 5718 5722 5741 5728 5710 5724 5726 5722 5719 5720 5722 5721 5718 5715 5712 5711 5709 5708 5707 5705 5701 5698 5697 5696 5694 5693 5691 5689 5687 5687 5686 5686 5685 5685
5728 5733 5752 5757 5748 5739 5742 5735 5708 5697 5705 5718 5731 5717 5712 5726 5725 5725 5721 5719 5718 5715 5714 5711 5709 5708 5706 5704 5702 5700 5697 5694 5694 5692 5690 5689 5688 5686 5685 5684 5683 5683 5682 5682
5722 5729 5755 5758 5757 5748 5736 5734 5740 5725 5721 5714 5714 5710 5711 5721 5718 5718 5716 5714 5711 5708 5709 5708 5706 5705 5703 5701 5698 5696 5694 5692 5691 5690 5688 5686 5684 5682 5681 5681 5680 5680 5680 5680
5732 5721 5744 5754 5756 5753 5748 5745 5737 5721 5704 5696 5705 5704 5698 5706 5708 5710 5709 5707 5707 5707 5706 5704 5702 5700 5699 5697 5696 5694 5692 5691 5689 5688 5686 5684 5681 5679 5678 5677 5677 5676 5676 5676
5736 5718 5730 5743 5737 5732 5736 5735 5731 5727 5723 5700 5690 5693 5714 5709 5709 5707 5706 5705 5705 5704 5703 5701 5699 5698 5697 5695 5694 5692 5690 5688 5687 5685 5684 5681 5679 5678 5677 5675 5675 5674 5674 5673
5732 5722 5717 5732 5746 5750 5740 5733 5729 5711 5708 5713 5698 5692 5720 5714 5712 5709 5706 5706 5705 5703 5701 5699 5696 5695 5694 5692 5691 5690 5688 5686 5685 5684 5682 5680 5678 5676 5674 5673 5673 5673 5672 5671
5725 5714 5705 5711 5723 5733 5730 5732 5733 5726 5714 5705 5691 5689 5715 5713 5708 5708 5706 5704 5702 5700 5699 5697 5694 5692 5690 5689 5688 5687 5685 5684 5684 5683 5680 5678 5676 5674 5672 5672 5672 5670 5670 5669
5725 5713 5708 5699 5708 5721 5720 5726 5728 5720 5706 5698 5692 5691 5702 5703 5703 5704 5703 5701 5699 5697 5695 5693 5690 5688 5687 5686 5684 5683 5683 5683 5682 5680 5678 5675 5674 5672 5670 5670 5669 5668 5668 5666
5724 5712 5718 5723 5728 5729 5723 5722 5722 5716 5711 5700 5696 5695 5695 5702 5702 5702 5701 5699 5696 5693 5692 5690 5688 5686 5684 5682 5681 5681 5680 5680 5679 5677 5676 5674 5673 5672 5670 5668 5667 5667 5666 5665
5723 5712 5716 5718 5728 5727 5718 5718 5718 5713 5711 5705 5699 5694 5703 5707 5705 5702 5699 5696 5692 5691 5690 5688 5686 5684 5681 5679 5679 5678 5677 5677 5676 5675 5674 5673 5672 5670 5668 5666 5665 5664 5664 5663
5720 5713 5708 5708 5722 5719 5705 5711 5712 5711 5711 5705 5694 5695 5703 5701 5700 5698 5696 5693 5691 5689 5688 5686 5683 5681 5679 5678 5676 5675 5675 5675 5674 5672 5672 5672 5671 5669 5667 5666 5664 5662 5661 5660
5715 5709 5707 5708 5707 5689 5704 5724 5720 5712 5710 5710 5704 5703 5702 5702 5701 5701 5698 5694 5691 5688 5686 5684 5681 5679 5679 5678 5676 5675 5675 5674 5672 5671 5671 5671 5670 5668 5666 5665 5662 5661 5659 5657
5724 5711 5705 5704 5699 5700 5709 5719 5717 5707 5700 5708 5704 5703 5704 5705 5702 5697 5698 5695 5691 5689 5685 5683 5682 5680 5679 5677 5676 5674 5673 5673 5671 5671 5670 5670 5669 5667 5665 5663 5661 5660 5658 5656
5726 5719 5706 5702 5692 5687 5701 5720 5725 5711 5692 5706 5705 5702 5703 5700 5688 5687 5695 5694 5691 5689 5686 5683 5682 5680 5678 5676 5675 5672 5671 5670 5670 5670 5670 5670 5669 5666 5664 5662 5660 5659 5657 5655
5708 5707 5701 5698 5693 5697 5712 5722 5720 5690 5685 5703 5706 5704 5701 5695 5692 5693 5695 5693 5690 5687 5685 5683 5681 5678 5676 5676 5674 5670 5669 5669 5670 5671 5670 5669 5667 5666 5664 5661 5660 5658 5656 5655
5705 5700 5698 5696 5687 5688 5713 5714 5700 5694 5703 5705 5705 5703 5699 5696 5697 5696 5694 5691 5689 5686 5684 5682 5679 5677 5676 5675 5673 5670 5668 5670 5671 5670 5668 5667 5666 5665 5664 5661 5659 5657 5655 5652
5707 5704 5700 5696 5694 5705 5713 5709 5709 5709 5705 5706 5704 5703 5699 5695 5694 5693 5690 5688 5686 5684 5682 5681 5678 5676 5675 5675 5673 5670 5669 5670 5670 5668 5666 5665 5665 5664 5662 5660 5658 5655 5653 5650
5708 5712 5704 5698 5703 5708 5711 5711 5711 5711 5708 5708 5705 5703 5699 5694 5692 5690 5687 5685 5683 5682 5680 5679 5677 5675 5673 5673 5673 5671 5671 5670 5669 5666 5665 5664 5663 5662 5660 5659 5657 5654 5651 5648
5699 5701 5697 5695 5700 5704 5706 5707 5708 5709 5709 5707 5705 5702 5698 5694 5691 5689 5685 5683 5682 5680 5679 5677 5675 5673 5673 5673 5672 5672 5671 5669 5666 5664 5663 5663 5662 5660 5658 5655 5653 5651 5648 5646
5699 5696 5690 5688 5697 5696 5698 5706 5709 5706 5705 5705 5701 5698 5697 5694 5690 5687 5684 5682 5680 5678 5677 5676 5674 5673 5673 5673 5672 5672 5671 5669 5665 5663 5662 5662 5661 5659 5658 5655 5651 5648 5646 5643